Chattanooga, TN

9:37 PM EDT on July 23, 2017 (GMT -0400)
Lovell

Weather History for KCHA - October, 2010

Change the Weather History Date:

Sunday, October 10, 2010

  Actual Average Record
Temperature  
Mean Temperature 68 °F 63 °F  
Max Temperature 88 °F 75 °F 88 °F (1939)
Min Temperature 48 °F 52 °F 33 °F (2000)
Degree Days  
Heating Degree Days 0 4  
Month to date heating degree days 29 27  
Since 1 July heating degree days 31 42  
Cooling Degree Days 3 2  
Month to date cooling degree days 15 27  
Year to date cooling degree days 2365 1716  
Growing Degree Days 18 (Base 50)    
Moisture  
Dew Point 45 °F    
Average Humidity 51    
Maximum Humidity 86    
Minimum Humidity 16    
Precipitation  
Precipitation 0.00 in 0.10 in 1.85 in (1905)
Month to date precipitation 0.00 1.09  
Year to date precipitation 30.17 40.39  
Snow  
Snow 0.00 in 0.00 in - ()
Month to date snowfall 0.0 0.0  
Since 1 July snowfall 0.0 0.0  
Since 1 September snowfall 0.0 0.0  
Snow Depth 0.00 in    
Sea Level Pressure  
Sea Level Pressure 30.00 in    
Wind  
Wind Speed 1 mph (East)    
Max Wind Speed 8 mph    
Max Gust Speed 10 mph    
Visibility 10 miles    
Events      
T = Trace of Precipitation, MM = Missing Value Source: NWS Daily Summary

Daily Weather History Graph

Daily Weather History Graph

Search for Another Location

Airport or City:

Trip Planner

Search our weather history database for the weather conditions in past years. The results will help you decide how hot, cold, wet, or windy it might be!

Date:

Astronomy

Oct. 10, 2010 Rise Set
Actual Time 7:42 AM EDT 7:12 PM EDT
Civil Twilight 7:17 AM EDT 7:37 PM EDT
Nautical Twilight 6:47 AM EDT 8:07 PM EDT
Astronomical Twilight 6:18 AM EDT 8:36 PM EDT
Moon 11:02 AM EDT (10/10) 9:06 PM EDT (10/10)
Length of Visible Light 12h 20m
Length of Day
11h 29m
Waxing Crescent, 11% of the Moon is Illuminated
Oct 10
Waxing Crescent
Oct 14
First Quarter
Oct 22
Full
Oct 30
Last Quarter
Nov 6
New

Hourly Weather History & Observations

Time (EDT) Temp. Dew Point Humidity Pressure Visibility Wind Dir Wind Speed Gust Speed Precip Events Conditions
12:53 AM 55.9 °F 46.9 °F 72% 30.04 in 10.0 mi Calm Calm - N/A   Clear
1:53 AM 55.0 °F 46.9 °F 74% 30.04 in 10.0 mi Calm Calm - N/A   Clear
2:53 AM 53.1 °F 46.9 °F 80% 30.04 in 10.0 mi Calm Calm - N/A   Clear
3:53 AM 53.1 °F 46.0 °F 77% 30.03 in 10.0 mi Calm Calm - N/A   Clear
4:53 AM 51.1 °F 46.0 °F 83% 30.03 in 10.0 mi Calm Calm - N/A   Clear
5:53 AM 50.0 °F 46.0 °F 86% 30.04 in 10.0 mi Calm Calm - N/A   Clear
6:53 AM 50.0 °F 46.0 °F 86% 30.05 in 10.0 mi Calm Calm - N/A   Clear
7:53 AM 48.0 °F 45.0 °F 89% 30.06 in 10.0 mi Calm Calm - N/A   Clear
8:53 AM 52.0 °F 46.0 °F 80% 30.07 in 10.0 mi Calm Calm - N/A   Partly Cloudy
9:53 AM 59.0 °F 48.0 °F 67% 30.08 in 10.0 mi Calm Calm - N/A   Clear
10:53 AM 66.0 °F 51.1 °F 59% 30.06 in 10.0 mi Calm Calm - N/A   Clear
11:53 AM 73.0 °F 50.0 °F 44% 30.04 in 10.0 mi Calm Calm - N/A   Clear
12:53 PM 77.0 °F 48.9 °F 37% 30.02 in 10.0 mi Calm Calm - N/A   Clear
1:53 PM 82.9 °F 45.0 °F 26% 29.99 in 10.0 mi North 3.5 mph - N/A   Partly Cloudy
2:53 PM 84.9 °F 39.9 °F 20% 29.96 in 10.0 mi Calm Calm - N/A   Partly Cloudy
3:53 PM 87.1 °F 35.1 °F 16% 29.93 in 10.0 mi ESE 4.6 mph - N/A   Clear
4:53 PM 86.0 °F 35.1 °F 16% 29.92 in 10.0 mi Variable 3.5 mph - N/A   Clear
5:53 PM 86.0 °F 36.0 °F 17% 29.91 in 10.0 mi Calm Calm - N/A   Partly Cloudy
6:53 PM 82.9 °F 36.0 °F 19% 29.91 in 10.0 mi SE 3.5 mph - N/A   Partly Cloudy
7:53 PM 72.0 °F 43.0 °F 35% 29.93 in 10.0 mi Calm Calm - N/A   Partly Cloudy
8:53 PM 68.0 °F 46.9 °F 47% 29.94 in 10.0 mi Calm Calm - N/A   Clear
9:53 PM 64.9 °F 46.0 °F 50% 29.95 in 10.0 mi Calm Calm - N/A   Clear
10:53 PM 60.1 °F 48.0 °F 64% 29.96 in 10.0 mi Calm Calm - N/A   Clear
11:53 PM 59.0 °F 48.0 °F 67% 29.97 in 10.0 mi Calm Calm - N/A   Clear